Home   Weather   Pratteln   Past weeks

Flag for Switzerland Past Weather in Pratteln, Basel-Land, Switzerland — Yesterday and Last 2 Weeks

Now
57 °F

Light rain. Partly sunny.


Feels Like: 55 °F
Forecast: 55 / 71 °F
Wind: 10 mph from West

Location: Bale-Mulhouse

Current Time: Jul 26, 2017 at 6:56:25 am

Latest Report: Jul 26, 2017 at 6:30 am


Visibility: N/A

Pressure: 29.89 "Hg

Humidity: 94%

Dew Point: 55 °F

Location of PrattelnLocation

Past Weather in Pratteln — Graph

°F

Pratteln Temperature Yesterday

Maximum temperature yesterday: 70 °F (at 6:00 pm)
Minimum temperature yesterday: 57 °F (at 5:30 am)
Average temperature yesterday: 61 °F

High & Low Weather Summary for the Past Weeks

 TemperatureHumidityPressure
High91 °F (Jul 18, 3:30 pm)100% (Jul 14, 7:04 am)30.30 "Hg (Jul 14, 7:04 am)
Low50 °F (Jul 16, 2:00 am)29% (Jul 19, 12:30 pm)29.83 "Hg (Jul 21, 4:30 pm)
Average69 °F67%30.02 "Hg
* Reported Jul 11 5:00 am — Jul 26 5:30 am, Pratteln. Weather by CustomWeather, © 2017

Note: Actual official high and low records may vary slightly from our data, if they occured in-between our weather recording intervals... More about our weather records

Advertising

Pratteln Weather History for the Previous 24 Hours

Scroll right to see more
 ConditionsComfort  
Time TempWeatherWind HumidityBarometerVisibility
5:30 am
Wed, Jul 26
59 °FLight rain. Clear.10 mph88%29.89 "HgN/A
5:00 am59 °FLight rain. Clear.9 mph88%29.89 "HgN/A
4:30 am59 °FLight rain. Clear.10 mph88%29.89 "HgN/A
4:00 am59 °FLight rain. Overcast.12 mph88%29.89 "HgN/A
3:30 am59 °FLight rain. Clear.12 mph88%29.89 "HgN/A
3:00 am59 °FLight rain. Clear.12 mph88%29.86 "HgN/A
2:30 am59 °FLight rain. Clear.13 mph88%29.86 "HgN/A
2:00 am59 °FLight rain. Clear.12 mph88%29.89 "HgN/A
1:30 am59 °FLight rain. Clear.13 mph88%29.89 "HgN/A
1:00 am59 °FClear.9 mph88%29.89 "Hg10 mi
12:30 am59 °FPassing clouds.9 mph88%29.89 "HgN/A
12:00 am59 °FScattered showers. Partly cloudy.6 mph88%29.89 "HgN/A
11:30 pm
Tue, Jul 25
59 °FScattered showers. Partly cloudy.3 mph94%29.89 "HgN/A
11:00 pm59 °FPartly cloudy.5 mph88%29.89 "HgN/A
10:30 pm57 °FPartly cloudy.2 mph94%29.89 "HgN/A
10:00 pm57 °FPartly cloudy.5 mph94%29.89 "HgN/A
9:30 pm57 °FPartly cloudy.6 mph100%29.89 "HgN/A
9:00 pm59 °FBroken clouds.3 mph94%29.89 "HgN/A
8:30 pm59 °FBroken clouds.2 mph94%29.89 "HgN/A
8:00 pm59 °FStrong thunderstorms. Partly sunny.17 mph88%29.89 "Hg1 mi
7:30 pm68 °FScattered showers. Broken clouds.7 mph60%29.86 "HgN/A
7:00 pm70 °FScattered showers. Broken clouds.10 mph57%29.86 "HgN/A
6:30 pm68 °FScattered showers. Partly sunny.13 mph56%29.86 "HgN/A
6:00 pm70 °FScattered showers. Broken clouds.10 mph53%29.86 "HgN/A
5:30 pm68 °FScattered showers. Broken clouds.7 mph60%29.86 "HgN/A
5:00 pm68 °FScattered showers. Partly sunny.6 mph56%29.89 "HgN/A
4:30 pm68 °FScattered showers. Partly sunny.10 mph56%29.89 "HgN/A
4:00 pm68 °FScattered showers. Partly sunny.14 mph53%29.89 "HgN/A
3:30 pm66 °FBroken clouds.9 mph64%29.89 "HgN/A
3:00 pm64 °FPartly sunny.6 mph78%29.89 "HgN/A
2:30 pm64 °FBroken clouds.8 mph64%29.89 "HgN/A
2:00 pm64 °FPartly sunny.8 mph68%29.92 "HgN/A
1:30 pm64 °FBroken clouds.13 mph64%29.92 "HgN/A
1:00 pm64 °FBroken clouds.13 mph64%29.92 "HgN/A
12:30 pm64 °FPartly sunny.13 mph68%29.92 "HgN/A
12:00 pm63 °FScattered showers. Broken clouds.10 mph73%29.92 "HgN/A
11:30 am61 °FScattered showers. Broken clouds.10 mph72%29.92 "HgN/A
11:00 am61 °FPartly sunny.16 mph72%29.92 "HgN/A
10:30 am63 °FPartly sunny.14 mph73%29.92 "HgN/A
10:00 am63 °FPartly sunny.10 mph73%29.92 "HgN/A
9:30 am61 °FPartly sunny.9 mph77%29.92 "HgN/A
9:00 am61 °FPartly sunny.10 mph77%29.92 "HgN/A
8:30 am59 °FBroken clouds.13 mph88%29.92 "HgN/A
8:00 am57 °FPartly sunny.8 mph94%29.92 "HgN/A
7:30 am57 °FPartly sunny.8 mph94%29.92 "HgN/A
7:00 am57 °FPartly sunny.13 mph94%29.89 "HgN/A
6:30 am57 °FSprinkles. Broken clouds.8 mph94%29.89 "HgN/A
6:00 am57 °FSprinkles. Broken clouds.8 mph94%29.92 "HgN/A
Weather by CustomWeather, © 2017

See weather overviewHow to use our weather pages